Location: El Álamo
(40.2307°N, 3.9945°W)
Time: 03:41:27
(UTC+00:00)

Intercosmos 25 Rocket - Pass Details

Date: 19 May 2025
Orbit: 436 x 2959 km, 82.6° (Epoch: 23 June)

Event Time Altitude Azimuth Distance (km) Brightness Sun altitude
Exits shadow 22:41:24 74° 145° (SE) 896 4.0 -26.2°
Maximum altitude 22:41:48 80° 95° (E) 901 4.2 -26.2°
Drops below altitude 10° 22:49:20 10° 10° (N) 3,413 8.1 -26.7°
Sets 22:52:59 0° 9° (N) 4,805 9.0 -27.0°
